Regional Weather Roundup
Issued by NWS

Home | Current Version | Previous Version | Text Only | Print | Product List | Glossary Off
Versions: 1 2 3 4 5 6 7 8 9 10 11 12 13 14 15 16 17 18 19 20 21 22 23 24 25 26 27 28 29 30 31 32 33 34 35 36 37 38 39 40 41 42 43 44 45 46 47 48 49 50

917
ASUS43 KMKX 281200
RWRWI

WISCONSIN REGIONAL WEATHER ROUNDUP
NATIONAL WEATHER SERVICE MILWAUKEE/SULLIVAN WI
700 AM CDT SUN AUG 28 2016

NOTE: "FAIR" INDICATES FEW OR NO CLOUDS BELOW 12,000 FEET WITH NO
SIGNIFICANT WEATHER AND/OR OBSTRUCTIONS TO VISIBILITY.

WIZ001-002-006>008-014>016-023>028-281300-
NORTHWEST WISCONSIN

CITY           SKY/WX    TMP DP  RH WIND       PRES   REMARKS
SUPERIOR ARPT  CLOUDY    59  59 100 S5        30.14S
ASHLAND        FOG       57  57 100 CALM      30.16R VSB 1/2
6HR MIN TEMP:  57; 6HR MAX TEMP:  61;

HAYWARD        CLOUDY    62  58  86 CALM      30.16S
6HR MIN TEMP:  61; 6HR MAX TEMP:  62;

SIREN          FOG       60  59  97 CALM      30.15R VSB<1/4
CUMBERLAND     FOG       57  55  94 CALM      30.16R VSB<1/4
RICE LAKE      FOG       59  58  96 CALM      30.18R VSB<1/4
CHETEK         NOT AVBL
LADYSMITH      CLOUDY    61  60  97 CALM      30.19R FOG
EAU CLAIRE     FOG       62  62 100 E3        30.15S VSB 1
MENOMONIE      FOG       62  62 100 CALM      30.16R VSB 1/4
6HR MIN TEMP:  61; 6HR MAX TEMP:  64;

NEW RICHMOND   FOG       59  59 100 CALM      30.15R VSB 1
OSCEOLA        FOG       60  60 100 E5        30.17R VSB<1/4
$$

WIZ003>005-009-010-017-018-281300-
NORTH CENTRAL WISCONSIN

CITY           SKY/WX    TMP DP  RH WIND       PRES   REMARKS
MANITOWISH WTR NOT AVBL
ARBOR VITAE    CLOUDY    62  60  94 CALM      30.18R
WOODRUFF       CLOUDY    62  60  94 CALM      30.18R
RHINELANDER    FOG       59  59 100 W3        30.19R VSB 3/4
6HR MIN TEMP:  59; 6HR MAX TEMP:  63; 6HR PCP: TRACE;

EAGLE RIVER    CLOUDY    60  60 100 CALM      30.18R
LAND O LAKES   CLOUDY    61  60  96 CALM      30.20R
PHILLIPS       CLOUDY    59  59 100 CALM      30.17R
6HR MIN TEMP:  58; 6HR MAX TEMP:  62;

TOMAHAWK       CLOUDY    60  59  97 CALM      30.19R FOG
MEDFORD        MOCLDY    59  59 100 CALM      30.18R FOG
MERRILL        CLOUDY    62  62 100 CALM      30.20R
6HR MIN TEMP:  60; 6HR MAX TEMP:  64;

$$

WIZ029-030-035-036-043>047-281300-
CENTRAL WISCONSIN

CITY           SKY/WX    TMP DP  RH WIND       PRES   REMARKS
WAUSAU         CLOUDY    61  59  93 NW7       30.18R
6HR MIN TEMP:  61; 6HR MAX TEMP:  64;

MOSINEE        CLOUDY    61  61 100 W9        30.19R FOG
MARSHFIELD     MOCLDY    62  59  90 N3        30.17S
6HR MIN TEMP:  62; 6HR MAX TEMP:  65;

STEVENS POINT  PTCLDY    58  58 100 CALM      30.18R FOG
WAUPACA        CLOUDY    64  63  98 CALM      30.18R FOG
WAUTOMA        MOCLDY    65  64  97 CALM      30.19  FOG
6HR MIN TEMP:  64; 6HR MAX TEMP:  65;

WISC RAPIDS    PTCLDY    63  63 100 CALM      30.19R
6HR MIN TEMP:  63; 6HR MAX TEMP:  65; 6HR PCP: TRACE;

CAMP DOUGLAS   CLOUDY    66  66  99 CALM      30.18R FOG
6HR MIN TEMP:  66; 6HR MAX TEMP:  66;

$$

WIZ011>013-019>022-031-037>040-048>050-281300-
NORTHEAST WISCONSIN

CITY           SKY/WX    TMP DP  RH WIND       PRES   REMARKS
ANTIGO         CLOUDY    60  60  99 CALM      30.19R
SHAWANO        FOG       62  61  95 CALM      30.17R VSB 3/4
OCONTO         NOT AVBL
STURGEON BAY   CLOUDY    64  63  96 SW5       30.18R
6HR MIN TEMP:  63; 6HR MAX TEMP:  64; 6HR PCP:  0.01;

GREEN BAY      MOCLDY    61  61 100 S3        30.17R FOG
6HR MIN TEMP:  60; 6HR MAX TEMP:  63;

MANITOWOC      CLOUDY    64  63  94 MISG      30.18S FOG
APPLETON       FOG       61  61 100 CALM      30.17R VSB 1
CLINTONVILLE   FOG       59  59 100 CALM      30.18R VSB 3/4
OSHKOSH        CLOUDY    64  63  96 SW3       30.18R
6HR MIN TEMP:  62; 6HR MAX TEMP:  64;

$$

WIZ032>034-041-042-053>061-281300-
SOUTHWEST WISCONSIN

CITY           SKY/WX    TMP DP  RH WIND       PRES   REMARKS
LA CROSSE      CLOUDY    67  67 100 E3        30.15R FOG
6HR MIN TEMP:  67; 6HR MAX TEMP:  68;

SPARTA         CLOUDY    64  64 100 CALM      30.17R FOG
VIROQUA        CLOUDY    61  61 100 CALM      30.18R VSB<1/4
6HR MIN TEMP:  60; 6HR MAX TEMP:  64;

BOSCOBEL       FOG       63  62  97 VRB3      30.17R VSB 1/4
6HR MIN TEMP:  63; 6HR MAX TEMP:  65;

PRAIRIE DU CHI CLOUDY    62  61  96 CALM      30.15R FOG
PLATTEVILLE    CLEAR     63  63 100 E3        30.16R
$$

WIZ056-057-062-063-064-067-068-281300-
SOUTH CENTRAL WISCONSIN

CITY           SKY/WX    TMP DP  RH WIND       PRES   REMARKS
REEDSBURG      NOT AVBL
BARABOO/DELLS  FOG       63  61  95 CALM      30.17R VSB<1/4
LONE ROCK      NOT AVBL
MINERAL POINT  PTCLDY    63  63 100 E3        30.17R FOG
MADISON        FOG       63  63 100 NE5       30.17R VSB 1/8
6HR MIN TEMP:  62; 6HR MAX TEMP:  66;

MIDDLETON      CLOUDY    59  59 100 CALM      30.18R VSB 1/4
WATERTOWN      FOG       62  62 100 NE3       30.17R VSB<1/4
MONROE         FOG       63  63 100 CALM      30.17R VSB<1/4
JANESVILLE     FOG       66  64  94 CALM      30.16R VSB 3/4
$$

WIZ051-052-058>065-066-070>072-281300-
SOUTHEAST WISCONSIN

CITY           SKY/WX    TMP DP  RH WIND       PRES   REMARKS
MILWAUKEE      PTCLDY    67  65  93 CALM      30.17R FOG
6HR MIN TEMP:  65; 6HR MAX TEMP:  68;

WAUKESHA       NOT AVBL
MILWAUKEE/TIMM PTCLDY    61  59  94 NW5       30.18S FOG
RACINE         FOG       65  64  97 CALM      30.18R VSB 1/4
6HR MIN TEMP:  64; 6HR MAX TEMP:  71;

BURLINGTON     FOG       62  62  99 CALM      30.17R VSB 1/4
KENOSHA        FOG       67  66  97 CALM      30.17R VSB 1/4
6HR MIN TEMP:  65; 6HR MAX TEMP:  72;

FOND DU LAC    CLOUDY    64  63  96 CALM      30.19R
6HR MIN TEMP:  63; 6HR MAX TEMP:  65;

SHEBOYGAN      CLOUDY    65  63  93 NW5       30.18S FOG
6HR MIN TEMP:  60; 6HR MAX TEMP:  65;

WEST BEND      FOG       63  63 100 CALM      30.18R VSB 1/4
JUNEAU         FOG       64  63  99 N3        30.19R VSB<1/4
$$

LSZ147-162-281300-
LAKE SUPERIOR

STATION/POSITION TIME  TEMP    WIND        PRES    WAVE
                       AIR SEA DIR/SP/G            HT/PER
                 (UTC) (F)     (DEG/KT/KT) (MB)    (FT/S)
W MID LAKE BUOY  1050   64 67  270/ 10/ 10 1019.4R   1/ 3
DEVILS ISLAND    1100   62     200/  6/  7 1020.6R
PORT WING        1100   60     190/  2/  4 1020.7
SAXON HARBOR     1100   63     230/  1/  3 1020.7R
$$

LMZ867-665-643>646-281300-
LAKE MICHIGAN

STATION/POSITION TIME  TEMP    WIND        PRES    WAVE
                       AIR SEA DIR/SP/G            HT/PER
                 (UTC) (F)     (DEG/KT/KT) (MB)    (FT/S)
CHAMBERS ISLAND  1100   65     210/  4/  7 1020.3R
S GREEN BAY BUOY 1130   67 71  260/  8/ 10 1020.8R
N MID LAKE BUOY  1050   67 70  270/ 10/ 12 1019.5R   1/ 4
NORTHPORT PIER   1100   65     280/  2/  6 1020.3R
SISTER BAY       1137   68     300/ 12/ 14   N/A
KEWAUNEE LAKESHO 1100   61     190/  4/  5 1020.8R
SHEBOYGAN LAKESH 1100   63     340/  4/  6 1021.3R
PORT WASHINGTON  1140   63      90/  1/  2 1022.7R
ATWATER BUOY     1100   64     350/  4/  4   N/A
MILWAUKEE LAKESH 1110   64      40/  3/  3   N/A
S MID LAKE BUOY  1050   72 74   10/  6/  8 1020.2R   1
KENOSHA   LAKESH 1100   66      CALM  /  2 1020.7S
$$

TC  - TEMPERATURE IN CELSIUS
VSB - VISIBILITY IN STATUTE MILES
WCI - WIND CHILL INDEX
HX  - HEAT INDEX





USA.gov is the U.S. government's official web portal to all federal, state and local government web resources and services.